| time (UTC) | temp F | wind direction | speed knots | gust knots | rain 1hr in | rain 24hr in | rain mn in | humidity % | barometer mb |
| 20260503005601 | 74 | 89 | 0.9 | 1.7 | 0.00 | 0.00 | 0.00 | 21 | 1011.8 |
| 20260503005101 | 74 | 80 | 0.9 | 1.7 | 0.00 | 0.00 | 0.00 | 21 | 1011.9 |
| 20260503004603 | 74 | 83 | 0.9 | 1.7 | 0.00 | 0.00 | 0.00 | 20 | 1011.9 |
| 20260503004056 | 74 | 85 | 0.9 | 1.7 | 0.00 | 0.00 | 0.00 | 22 | 1011.9 |
| 20260503003548 | 74 | 87 | 0.9 | 1.7 | 0.00 | 0.00 | 0.00 | 21 | 1011.8 |
| 20260503003042 | 73 | 90 | 0.9 | 1.7 | 0.00 | 0.00 | 0.00 | 22 | 1011.8 |
| 20260503002537 | 73 | 86 | 0.9 | 1.7 | 0.00 | 0.00 | 0.00 | 23 | 1011.9 |
| 20260503002037 | 73 | 70 | 1.7 | 1.7 | 0.00 | 0.00 | 0.00 | 23 | 1011.8 |
| 20260503001538 | 73 | 85 | 1.7 | 1.7 | 0.00 | 0.00 | 0.00 | 22 | 1011.9 |
| 20260503001037 | 74 | 77 | 0.9 | 1.7 | 0.00 | 0.00 | 0.00 | 20 | 1011.9 |
| 20260503000801 | 75 | 70 | 0.9 | 1.7 | 0.00 | 0.00 | 0.00 | 20 | 1011.9 |
| 20260503000036 | 75 | 68 | 0.9 | 1.7 | 0.00 | 0.00 | 0.00 | 17 | 1012.0 |
| 20260502235754 | 75 | 30 | 0.9 | 1.7 | 0.00 | 0.00 | 0.00 | 18 | 1012.0 |
| 20260502235035 | 75 | 30 | 1.7 | 3.5 | 0.00 | 0.00 | 0.00 | 19 | 1012.0 |
| 20260502234535 | 74 | 78 | 1.7 | 3.5 | 0.00 | 0.00 | 0.00 | 23 | 1012.0 |
| 20260502234035 | 74 | 72 | 1.7 | 2.6 | 0.00 | 0.00 | 0.00 | 20 | 1012.1 |
| 20260502233534 | 74 | 67 | 1.7 | 2.6 | 0.00 | 0.00 | 0.00 | 20 | 1012.1 |
| 20260502233034 | 75 | 60 | 1.7 | 2.6 | 0.00 | 0.00 | 0.00 | 18 | 1012.1 |
| 20260502232534 | 75 | 34 | 2.6 | 3.5 | 0.00 | 0.00 | 0.00 | 17 | 1012.1 |
| 20260502232033 | 74 | 46 | 2.6 | 4.3 | 0.00 | 0.00 | 0.00 | 15 | 1012.1 |
| 20260502231533 | 74 | 62 | 3.5 | 4.3 | 0.00 | 0.00 | 0.00 | 17 | 1012.2 |
| 20260502231033 | 74 | 70 | 2.6 | 4.3 | 0.00 | 0.00 | 0.00 | 18 | 1012.2 |
| 20260502230533 | 74 | 85 | 2.6 | 5.2 | 0.00 | 0.00 | 0.00 | 24 | 1012.2 |
| 20260502230300 | 74 | 65 | 2.6 | 5.2 | 0.00 | 0.00 | 0.00 | 18 | 1012.3 |
| 20260502225526 | 73 | 58 | 3.5 | 5.2 | 0.00 | 0.00 | 0.00 | 21 | 1012.3 |
| 20260502225021 | 74 | 49 | 3.5 | 7.0 | 0.00 | 0.00 | 0.00 | 21 | 1012.4 |
| 20260502224734 | 74 | 78 | 4.3 | 8.7 | 0.00 | 0.00 | 0.00 | 21 | 1012.5 |
| 20260502224009 | 75 | 57 | 5.2 | 8.7 | 0.00 | 0.00 | 0.00 | 18 | 1012.6 |
| 20260502223503 | 75 | 60 | 6.1 | 10.4 | 0.00 | 0.00 | 0.00 | 17 | 1012.6 |
| 20260502222957 | 75 | 60 | 7.0 | 10.4 | 0.00 | 0.00 | 0.00 | 16 | 1012.6 |
| 20260502222451 | 75 | 85 | 6.1 | 11.3 | 0.00 | 0.00 | 0.00 | 17 | 1012.8 |
| 20260502221948 | 76 | 84 | 4.3 | 11.3 | 0.00 | 0.00 | 0.00 | 16 | 1012.9 |
| 20260502221440 | 75 | 113 | 3.5 | 7.8 | 0.00 | 0.00 | 0.00 | 20 | 1013.0 |
| 20260502220933 | 76 | 74 | 4.3 | 8.7 | 0.00 | 0.00 | 0.00 | 18 | 1013.0 |
| 20260502220427 | 76 | 72 | 3.5 | 8.7 | 0.00 | 0.00 | 0.00 | 15 | 1013.0 |
| 20260502215920 | 76 | 84 | 3.5 | 6.1 | 0.00 | 0.00 | 0.00 | 18 | 1013.2 |
| 20260502215415 | 76 | 103 | 4.3 | 9.6 | 0.00 | 0.00 | 0.00 | 18 | 1013.3 |
| 20260502214908 | 77 | 48 | 4.3 | 9.6 | 0.00 | 0.00 | 0.00 | 15 | 1013.3 |
| 20260502214403 | 78 | 89 | 4.3 | 7.8 | 0.00 | 0.00 | 0.00 | 17 | 1013.4 |
| 20260502213857 | 78 | 102 | 3.5 | 7.8 | 0.00 | 0.00 | 0.00 | 16 | 1013.5 |
| 20260502213350 | 77 | 79 | 2.6 | 8.7 | 0.00 | 0.00 | 0.00 | 18 | 1013.5 |
| 20260502213108 | 76 | 146 | 3.5 | 8.7 | 0.00 | 0.00 | 0.00 | 17 | 1013.7 |
| 20260502212557 | 75 | 63 | 2.6 | 5.2 | 0.00 | 0.00 | 0.00 | 18 | 1013.7 |
| 20260502211833 | 76 | 60 | 2.6 | 5.2 | 0.00 | 0.00 | 0.00 | 18 | 1013.7 |
| 20260502211327 | 75 | 166 | 3.5 | 5.2 | 0.00 | 0.00 | 0.00 | 18 | 1013.8 |
| 20260502210820 | 75 | 59 | 5.2 | 11.3 | 0.00 | 0.00 | 0.00 | 19 | 1013.8 |
| 20260502210315 | 77 | 91 | 6.1 | 11.3 | 0.00 | 0.00 | 0.00 | 19 | 1014.0 |
| 20260502205809 | 77 | 192 | 5.2 | 13.0 | 0.00 | 0.00 | 0.00 | 20 | 1014.1 |
| 20260502205529 | 78 | 172 | 5.2 | 16.5 | 0.00 | 0.00 | 0.00 | 19 | 1014.1 |
| 20260502204757 | 78 | 106 | 3.5 | 15.6 | 0.00 | 0.00 | 0.00 | 20 | 1014.1 |
| 20260502204251 | 78 | 234 | 2.6 | 9.6 | 0.00 | 0.00 | 0.00 | 19 | 1014.1 |
| 20260502204009 | 78 | 242 | 3.5 | 9.6 | 0.00 | 0.00 | 0.00 | 19 | 1014.1 |
| 20260502203240 | 76 | 236 | 3.5 | 6.1 | 0.00 | 0.00 | 0.00 | 20 | 1014.2 |
| 20260502202733 | 77 | 100 | 3.5 | 10.4 | 0.00 | 0.00 | 0.00 | 20 | 1014.3 |
| 20260502202448 | 77 | 155 | 4.3 | 10.4 | 0.00 | 0.00 | 0.00 | 19 | 1014.5 |
| 20260502201721 | 78 | 166 | 3.5 | 8.7 | 0.00 | 0.00 | 0.00 | 18 | 1014.5 |
| 20260502201439 | 77 | 86 | 4.3 | 8.7 | 0.00 | 0.00 | 0.00 | 17 | 1014.5 |
| 20260502200931 | 77 | 173 | 4.3 | 10.4 | 0.00 | 0.00 | 0.00 | 17 | 1014.5 |
| 20260502200203 | 76 | 195 | 5.2 | 11.3 | 0.00 | 0.00 | 0.00 | 17 | 1014.6 |
| 20260502195657 | 76 | 178 | 6.1 | 11.3 | 0.00 | 0.00 | 0.00 | 17 | 1014.6 |
| 20260502195409 | 74 | 89 | 6.1 | 9.6 | 0.00 | 0.00 | 0.00 | 20 | 1014.6 |
| 20260502194645 | 74 | 52 | 5.2 | 9.6 | 0.00 | 0.00 | 0.00 | 20 | 1014.7 |
| 20260502194139 | 74 | 142 | 3.5 | 7.8 | 0.00 | 0.00 | 0.00 | 21 | 1014.7 |
| 20260502193851 | 72 | 36 | 2.6 | 4.3 | 0.00 | 0.00 | 0.00 | 25 | 1014.8 |
| 20260502193127 | 71 | 118 | 1.7 | 3.5 | 0.00 | 0.00 | 0.00 | 30 | 1014.9 |
| 20260502192620 | 70 | 94 | 1.7 | 2.6 | 0.00 | 0.00 | 0.00 | 32 | 1015.1 |
| 20260502192115 | 69 | 28 | 2.6 | 2.6 | 0.00 | 0.00 | 0.00 | 31 | 1015.1 |
| 20260502191609 | 69 | 27 | 2.6 | 4.3 | 0.00 | 0.00 | 0.00 | 31 | 1015.2 |
| 20260502191103 | 69 | 42 | 3.5 | 5.2 | 0.00 | 0.00 | 0.00 | 33 | 1015.2 |
| 20260502190557 | 67 | 70 | 4.3 | 6.1 | 0.00 | 0.00 | 0.00 | 37 | 1015.3 |
| 20260502190057 | 67 | 81 | 6.1 | 7.8 | 0.00 | 0.00 | 0.00 | 39 | 1015.4 |
| 20260502185557 | 68 | 52 | 7.0 | 8.7 | 0.00 | 0.00 | 0.00 | 33 | 1015.4 |
| 20260502185055 | 67 | 50 | 7.0 | 8.7 | 0.00 | 0.00 | 0.00 | 33 | 1015.5 |
| 20260502184552 | 67 | 56 | 7.0 | 7.8 | 0.00 | 0.00 | 0.00 | 35 | 1015.6 |
| 20260502184053 | 67 | 57 | 7.0 | 7.8 | 0.00 | 0.00 | 0.00 | 34 | 1015.6 |
| 20260502183552 | 66 | 56 | 6.1 | 7.8 | 0.00 | 0.00 | 0.00 | 36 | 1015.8 |
| 20260502183313 | 66 | 68 | 7.0 | 8.7 | 0.00 | 0.00 | 0.00 | 37 | 1015.8 |
| 20260502182813 | 66 | 54 | 7.0 | 8.7 | 0.00 | 0.00 | 0.00 | 35 | 1015.8 |
| 20260502182051 | 66 | 56 | 5.2 | 7.8 | 0.00 | 0.00 | 0.00 | 37 | 1015.9 |
| 20260502181551 | 65 | 61 | 6.1 | 9.6 | 0.00 | 0.00 | 0.00 | 42 | 1016.0 |
| 20260502181050 | 65 | 60 | 6.1 | 9.6 | 0.00 | 0.00 | 0.00 | 39 | 1016.1 |
| 20260502180550 | 65 | 62 | 6.1 | 8.7 | 0.00 | 0.00 | 0.00 | 38 | 1016.1 |
| 20260502164048 | 56 | 90 | 13.0 | 17.4 | 0.00 | 0.00 | 0.00 | 49 | 1016.8 |
| 20260502163548 | 56 | 92 | 13.9 | 20.0 | 0.00 | 0.00 | 0.00 | 50 | 1016.8 |
| 20260502163045 | 55 | 84 | 14.8 | 20.0 | 0.00 | 0.00 | 0.00 | 52 | 1016.8 |
| 20260502162545 | 55 | 79 | 14.8 | 18.2 | 0.00 | 0.00 | 0.00 | 52 | 1016.9 |
| 20260502162044 | 55 | 94 | 15.6 | 19.1 | 0.00 | 0.00 | 0.00 | 52 | 1016.9 |
| 20260502161545 | 55 | 78 | 15.6 | 20.9 | 0.00 | 0.00 | 0.00 | 51 | 1016.9 |
| 20260502161045 | 54 | 83 | 14.8 | 20.9 | 0.00 | 0.00 | 0.00 | 54 | 1016.9 |
| 20260502160545 | 54 | 81 | 15.6 | 20.9 | 0.00 | 0.00 | 0.00 | 54 | 1016.9 |
| 20260502160311 | 53 | 91 | 16.5 | 20.9 | 0.00 | 0.00 | 0.00 | 56 | 1016.9 |
| 20260502152305 | 51 | 83 | 18.2 | 23.5 | 0.00 | 0.00 | 0.00 | 56 | 1016.9 |
| 20260502151805 | 51 | 105 | 18.2 | 23.5 | 0.00 | 0.00 | 0.00 | 57 | 1016.7 |
| 20260502151040 | 51 | 86 | 18.2 | 22.6 | 0.00 | 0.00 | 0.00 | 56 | 1016.8 |
| 20260502150541 | 51 | 96 | 19.1 | 23.5 | 0.00 | 0.00 | 0.00 | 57 | 1016.8 |
| 20260502150300 | 51 | 88 | 19.1 | 23.5 | 0.00 | 0.00 | 0.00 | 57 | 1016.9 |
| 20260502130534 | 48 | 62 | 18.2 | 22.6 | 0.00 | 0.00 | 0.00 | 61 | 1016.5 |
| 20260502130252 | 49 | 94 | 19.1 | 24.3 | 0.00 | 0.00 | 0.00 | 60 | 1016.4 |
| 20260502123530 | 49 | 83 | 17.4 | 23.5 | 0.00 | 0.00 | 0.00 | 60 | 1016.4 |
| 20260502123030 | 49 | 91 | 17.4 | 23.5 | 0.00 | 0.00 | 0.00 | 61 | 1016.5 |
| 20260502122531 | 49 | 76 | 18.2 | 24.3 | 0.00 | 0.00 | 0.00 | 61 | 1016.4 |
| 20260502122031 | 49 | 81 | 18.2 | 25.2 | 0.00 | 0.00 | 0.00 | 60 | 1016.4 |
| 20260502121530 | 49 | 94 | 18.2 | 25.2 | 0.00 | 0.00 | 0.00 | 61 | 1016.3 |
| 20260502121029 | 49 | 80 | 19.1 | 25.2 | 0.00 | 0.00 | 0.00 | 62 | 1016.1 |
| 20260502120754 | 49 | 79 | 19.1 | 25.2 | 0.00 | 0.00 | 0.00 | 60 | 1016.4 |
| 20260502115518 | 49 | 89 | 18.2 | 23.5 | 0.00 | 0.00 | 0.00 | 60 | 1016.4 |
| 20260502115019 | 49 | 88 | 18.2 | 23.5 | 0.00 | 0.00 | 0.00 | 59 | 1016.5 |
| 20260502114518 | 49 | 86 | 17.4 | 23.5 | 0.00 | 0.00 | 0.00 | 58 | 1016.5 |
| 20260502114018 | 50 | 57 | 17.4 | 22.6 | 0.00 | 0.00 | 0.00 | 60 | 1016.5 |
| 20260502113518 | 50 | 56 | 18.2 | 22.6 | 0.00 | 0.00 | 0.00 | 58 | 1016.5 |
| 20260502113018 | 50 | 94 | 18.2 | 24.3 | 0.00 | 0.00 | 0.00 | 58 | 1016.4 |
| 20260502112735 | 50 | 94 | 17.4 | 24.3 | 0.00 | 0.00 | 0.00 | 58 | 1016.5 |
| 20260502112018 | 50 | 51 | 17.4 | 21.7 | 0.00 | 0.00 | 0.00 | 57 | 1016.5 |
| 20260502111741 | 50 | 92 | 16.5 | 21.7 | 0.00 | 0.00 | 0.00 | 58 | 1016.5 |
| 20260502111019 | 50 | 81 | 17.4 | 23.5 | 0.00 | 0.00 | 0.00 | 56 | 1016.6 |
| 20260502110518 | 50 | 70 | 17.4 | 26.9 | 0.00 | 0.00 | 0.00 | 57 | 1016.5 |
| 20260502110018 | 50 | 85 | 17.4 | 26.9 | 0.00 | 0.00 | 0.00 | 57 | 1016.6 |
| 20260502105737 | 50 | 86 | 17.4 | 24.3 | 0.00 | 0.00 | 0.00 | 56 | 1016.6 |
| 20260502105020 | 50 | 71 | 17.4 | 23.5 | 0.00 | 0.00 | 0.00 | 57 | 1016.6 |
| 20260502104519 | 50 | 77 | 17.4 | 25.2 | 0.00 | 0.00 | 0.00 | 58 | 1016.7 |
| 20260502104238 | 50 | 79 | 18.2 | 25.2 | 0.00 | 0.00 | 0.00 | 58 | 1016.5 |
| 20260502103512 | 50 | 86 | 18.2 | 24.3 | 0.00 | 0.00 | 0.00 | 59 | 1016.5 |
| 20260502103005 | 50 | 79 | 18.2 | 24.3 | 0.00 | 0.00 | 0.00 | 58 | 1016.4 |
| 20260502102458 | 50 | 64 | 17.4 | 24.3 | 0.00 | 0.00 | 0.00 | 59 | 1016.5 |
| 20260502101953 | 50 | 77 | 17.4 | 24.3 | 0.00 | 0.00 | 0.00 | 57 | 1016.5 |
| 20260502101707 | 50 | 77 | 17.4 | 22.6 | 0.00 | 0.00 | 0.00 | 59 | 1016.7 |
| 20260502100941 | 50 | 94 | 17.4 | 22.6 | 0.00 | 0.00 | 0.00 | 58 | 1016.7 |
| 20260502100654 | 50 | 72 | 17.4 | 22.6 | 0.00 | 0.00 | 0.00 | 57 | 1016.6 |
| 20260502100150 | 51 | 83 | 17.4 | 22.6 | 0.00 | 0.00 | 0.00 | 58 | 1016.6 |
| 20260502090829 | 52 | 81 | 15.6 | 20.9 | 0.00 | 0.00 | 0.00 | 55 | 1016.8 |
| 20260502090549 | 52 | 56 | 15.6 | 20.9 | 0.00 | 0.00 | 0.00 | 55 | 1016.8 |
| 20260502071111 | 54 | 86 | 15.6 | 20.0 | 0.00 | 0.00 | 0.00 | 50 | 1017.0 |
| 20260502070613 | 55 | 80 | 15.6 | 20.0 | 0.00 | 0.00 | 0.00 | 51 | 1017.0 |
| 20260502070331 | 55 | 72 | 14.8 | 20.0 | 0.00 | 0.00 | 0.00 | 49 | 1016.9 |
| 20260502065610 | 55 | 94 | 13.9 | 19.1 | 0.00 | 0.00 | 0.00 | 48 | 1016.9 |
| 20260502065110 | 55 | 89 | 13.9 | 19.1 | 0.00 | 0.00 | 0.00 | 48 | 1017.0 |
| 20260502064610 | 55 | 82 | 13.9 | 19.1 | 0.00 | 0.00 | 0.00 | 50 | 1016.9 |
| 20260502063610 | 56 | 79 | 13.9 | 18.2 | 0.00 | 0.00 | 0.00 | 49 | 1016.9 |
| 20260502063110 | 55 | 72 | 13.9 | 20.0 | 0.00 | 0.00 | 0.00 | 49 | 1016.9 |
| 20260502062611 | 55 | 57 | 14.8 | 20.0 | 0.00 | 0.00 | 0.00 | 50 | 1016.9 |
| 20260502062111 | 56 | 74 | 14.8 | 20.0 | 0.00 | 0.00 | 0.00 | 48 | 1016.8 |
| 20260502061610 | 56 | 76 | 14.8 | 19.1 | 0.00 | 0.00 | 0.00 | 48 | 1016.8 |
| 20260502061108 | 56 | 80 | 14.8 | 19.1 | 0.00 | 0.00 | 0.00 | 48 | 1016.7 |
| 20260502060608 | 56 | 89 | 14.8 | 19.1 | 0.00 | 0.00 | 0.00 | 51 | 1016.7 |
| 20260502060107 | 56 | 86 | 13.9 | 19.1 | 0.00 | 0.00 | 0.00 | 47 | 1016.7 |
| 20260502055606 | 56 | 77 | 13.9 | 19.1 | 0.00 | 0.00 | 0.00 | 48 | 1016.7 |
| 20260502055339 | 57 | 82 | 14.8 | 20.0 | 0.00 | 0.00 | 0.00 | 47 | 1016.8 |
| 20260502054602 | 57 | 87 | 13.9 | 20.0 | 0.00 | 0.00 | 0.00 | 47 | 1016.8 |
| 20260502054102 | 57 | 73 | 13.9 | 19.1 | 0.00 | 0.00 | 0.00 | 48 | 1016.8 |
| 20260502053826 | 57 | 79 | 13.9 | 19.1 | 0.00 | 0.00 | 0.00 | 46 | 1016.7 |
| 20260502052602 | 57 | 58 | 12.2 | 16.5 | 0.00 | 0.00 | 0.00 | 46 | 1016.8 |
| 20260502052102 | 57 | 58 | 12.2 | 18.2 | 0.00 | 0.00 | 0.00 | 46 | 1016.8 |
| 20260502051602 | 57 | 72 | 13.0 | 18.2 | 0.00 | 0.00 | 0.00 | 46 | 1016.8 |
| 20260502051101 | 58 | 71 | 11.3 | 16.5 | 0.00 | 0.00 | 0.00 | 44 | 1016.8 |
| 20260502050823 | 58 | 78 | 11.3 | 15.6 | 0.00 | 0.00 | 0.00 | 45 | 1016.7 |
| 20260502050057 | 58 | 75 | 10.4 | 14.8 | 0.00 | 0.00 | 0.00 | 44 | 1016.8 |
| 20260502045558 | 58 | 64 | 11.3 | 15.6 | 0.00 | 0.00 | 0.00 | 45 | 1016.8 |
| 20260502045058 | 58 | 69 | 11.3 | 15.6 | 0.00 | 0.00 | 0.00 | 44 | 1016.7 |
| 20260502044820 | 59 | 77 | 10.4 | 14.8 | 0.00 | 0.00 | 0.00 | 43 | 1016.7 |
| 20260502044058 | 59 | 77 | 9.6 | 14.8 | 0.00 | 0.00 | 0.00 | 40 | 1016.8 |
| 20260502043558 | 59 | 51 | 8.7 | 13.0 | 0.00 | 0.00 | 0.00 | 43 | 1016.8 |
| 20260502043058 | 59 | 65 | 7.8 | 11.3 | 0.00 | 0.00 | 0.00 | 43 | 1016.8 |
| 20260502042558 | 58 | 86 | 7.8 | 11.3 | 0.00 | 0.00 | 0.00 | 50 | 1016.8 |
| 20260502042058 | 59 | 51 | 7.0 | 11.3 | 0.00 | 0.00 | 0.00 | 46 | 1016.8 |
| 20260502041558 | 58 | 68 | 7.0 | 10.4 | 0.00 | 0.00 | 0.00 | 44 | 1016.7 |
| 20260502041058 | 58 | 58 | 7.0 | 9.6 | 0.00 | 0.00 | 0.00 | 50 | 1016.6 |
| 20260502040557 | 58 | 58 | 4.3 | 9.6 | 0.00 | 0.00 | 0.00 | 46 | 1016.7 |
| 20260502040057 | 59 | 77 | 2.6 | 5.2 | 0.00 | 0.00 | 0.00 | 45 | 1016.6 |
| 20260502035555 | 59 | 46 | 2.6 | 5.2 | 0.00 | 0.00 | 0.00 | 44 | 1016.6 |
| 20260502035056 | 58 | 148 | 2.6 | 5.2 | 0.00 | 0.00 | 0.00 | 44 | 1016.6 |
| 20260502034555 | 57 | 77 | 1.7 | 4.3 | 0.00 | 0.00 | 0.00 | 51 | 1016.5 |
| 20260502034054 | 57 | 35 | 1.7 | 4.3 | 0.00 | 0.00 | 0.00 | 53 | 1016.4 |
| 20260502033552 | 57 | 27 | 0.9 | 2.6 | 0.00 | 0.00 | 0.00 | 54 | 1016.3 |
| 20260502033310 | 56 | 111 | 1.7 | 3.5 | 0.00 | 0.00 | 0.00 | 52 | 1016.3 |
| 20260502032550 | 57 | 82 | 1.7 | 3.5 | 0.00 | 0.00 | 0.00 | 50 | 1016.3 |
| 20260502032049 | 57 | 75 | 2.6 | 3.5 | 0.00 | 0.00 | 0.00 | 49 | 1016.1 |
| 20260502031548 | 58 | 57 | 2.6 | 3.5 | 0.00 | 0.00 | 0.00 | 44 | 1016.0 |
| 20260502031041 | 58 | 77 | 2.6 | 4.3 | 0.00 | 0.00 | 0.00 | 42 | 1015.9 |
| 20260502030534 | 59 | 98 | 2.6 | 4.3 | 0.00 | 0.00 | 0.00 | 43 | 1015.9 |
| 20260502030028 | 60 | 88 | 1.7 | 4.3 | 0.00 | 0.00 | 0.00 | 39 | 1015.8 |
| 20260502025744 | 60 | 92 | 2.6 | 4.3 | 0.00 | 0.00 | 0.00 | 41 | 1015.9 |
| 20260502025019 | 61 | 58 | 1.7 | 4.3 | 0.00 | 0.00 | 0.00 | 39 | 1015.9 |
| 20260502024515 | 61 | 99 | 2.6 | 0.0 | 0.00 | 0.00 | 0.00 | 39 | 1015.8 |
| 20260502024143 | 62 | 111 | 1.7 | 3.5 | 0.00 | 0.00 | 0.00 | 40 | 1015.8 |
| 20260502023641 | 62 | 75 | 2.6 | 4.3 | 0.00 | 0.00 | 0.00 | 40 | 1015.8 |
| 20260502023141 | 62 | 113 | 2.6 | 4.3 | 0.00 | 0.00 | 0.00 | 39 | 1015.8 |
| 20260502022642 | 63 | 103 | 2.6 | 4.3 | 0.00 | 0.00 | 0.00 | 37 | 1015.8 |
| 20260502022142 | 63 | 73 | 1.7 | 3.5 | 0.00 | 0.00 | 0.00 | 37 | 1015.8 |
| 20260502021641 | 64 | 97 | 1.7 | 3.5 | 0.00 | 0.00 | 0.00 | 37 | 1015.8 |
| 20260502021400 | 65 | 101 | 2.6 | 3.5 | 0.00 | 0.00 | 0.00 | 32 | 1015.8 |
| 20260502020641 | 66 | 115 | 2.6 | 4.3 | 0.00 | 0.00 | 0.00 | 33 | 1015.8 |
| 20260502020135 | 67 | 135 | 2.6 | 4.3 | 0.00 | 0.00 | 0.00 | 29 | 1015.8 |
| 20260502015629 | 68 | 131 | 3.5 | 4.3 | 0.00 | 0.00 | 0.00 | 25 | 1015.8 |
| 20260502015123 | 69 | 146 | 3.5 | 4.3 | 0.00 | 0.00 | 0.00 | 24 | 1015.8 |
| 20260502014617 | 70 | 168 | 2.6 | 3.5 | 0.00 | 0.00 | 0.00 | 23 | 1015.8 |
| 20260502014111 | 71 | 154 | 2.6 | 2.6 | 0.00 | 0.00 | 0.00 | 22 | 1015.8 |
| 20260502013605 | 71 | 154 | 2.6 | 3.5 | 0.00 | 0.00 | 0.00 | 21 | 1015.8 |
| 20260502013058 | 71 | 162 | 1.7 | 3.5 | 0.00 | 0.00 | 0.00 | 21 | 1015.8 |
| 20260502012815 | 72 | 157 | 1.7 | 2.6 | 0.00 | 0.00 | 0.00 | 21 | 1015.9 |
| 20260502012047 | 73 | 152 | 0.9 | 2.6 | 0.00 | 0.00 | 0.00 | 20 | 1015.9 |
| 20260502011540 | 72 | 217 | 1.7 | 3.5 | 0.00 | 0.00 | 0.00 | 19 | 1015.9 |
| 20260502011034 | 72 | 258 | 2.6 | 4.3 | 0.00 | 0.00 | 0.00 | 18 | 1015.9 |
| 20260502010747 | 72 | 177 | 2.6 | 5.2 | 0.00 | 0.00 | 0.00 | 18 | 1016.0 |
| 20260502010243 | 72 | 169 | 2.6 | 7.0 | 0.00 | 0.00 | 0.00 | 18 | 1016.0 |